Simultaneous Nadir Overpasses (SNOs) Predictions

Prediction of SNOs between GOES-16 and METOP-C Satellite Orbit:

Table of predicted SNOs for the next 14.0 days since TLE Epoch: 5/6/2023
Index Date Time (GOES-16) GOES-16 Lat,Lon METOP-C Lat,Lon Distance(km) Time Diff (sec)
1 05/07/2023 14:42:13 0.04, -75.21 0.70, -78.20 340.77 80
2 05/08/2023 14:24:14 0.03, -75.21 -0.44, -73.21 228.82 80
3 05/10/2023 02:43:13 -0.03, -75.20 -0.61, -77.80 295.75 80
4 05/11/2023 02:19:54 -0.02, -75.21 0.53, -72.81 273.95 80
5 05/12/2023 14:38:44 0.02, -75.23 0.51, -77.36 242.98 80
6 05/13/2023 14:20:45 0.01, -75.25 -0.64, -72.37 327.43 80
7 05/15/2023 02:39:44 -0.01, -75.25 -0.41, -76.96 195.52 80
8 05/16/2023 02:16:24 -0.01, -75.27 0.73, -71.98 375.42 80
9 05/17/2023 14:35:15 0.01, -75.31 0.27, -76.54 139.70 80
10 05/18/2023 14:17:14 0.01, -75.33 -0.82, -71.54 431.63 80
11 05/20/2023 02:36:15 -0.01, -75.34 -0.17, -76.14 90.31 80
